Location: Unspecified
(48.2082°N, 0.0000°E)
Time: 02:30:27
(UTC+00:00)

Transit 4A - Pass Details

Date: 18 June 2019
Orbit: 866 x 978 km, 66.8° (Epoch: 14 October)

Event Time Altitude Azimuth Distance (km) Brightness Sun altitude
Rises 13:47:25 0° 309° (NW) 3,679 11.1 57.5°
Reaches altitude 10° 13:51:26 10° 333° (NNW) 2,738 10.4 57.0°
Maximum altitude 13:54:48 14° 5° (N) 2,423 10.0 56.5°
Drops below altitude 10° 13:58:10 10° 37° (NE) 2,734 10.1 56.1°
Sets 14:02:10 0° 61° (ENE) 3,670 10.7 55.5°
